Location: Bosdarros
(43.2167°N, 0.3667°W)
Time: 03:45:48
(UTC+00:00)

Cosmos 2082 - Pass Details

Date: 22 April 2021
Orbit: 834 x 855 km, 71.0° (Epoch: 15 May)

Event Time Altitude Azimuth Distance (km) Brightness Sun altitude
Exits shadow 20:37:19 21° 166° (SSE) 1,767 4.9 -17.6°
Maximum altitude 20:40:35 43° 107° (ESE) 1,154 4.0 -18.1°
Drops below altitude 10° 20:45:52 10° 37° (NE) 2,453 6.1 -18.9°
Sets 20:48:24 0° 31° (NNE) 3,394 7.0 -19.2°
